Вернуться в каталог

STARLINK-3607

АктивенСвязьVLEO
NORAD 51809·PAYLOAD·🇺🇸 United States

Запущен Feb 25, 2022 с Vandenberg Space Force Base

Loading…

Ближайшие Пролёты (ближайшие 24 часа)

TLE

СвежийSource: CelesTrak SupGP

Эпоха: Sep 15, 2026, 01:31 UTC

1 51809C 22017AT  26258.06368056 -.00024146  00000+0 -73282-3 0  2583
2 51809  53.1581 197.4273 0001389  78.8111  35.4607 15.33554756    18

Отслеживайте STARLINK-3607 в реальном времени с AllMySat

Download on the App Store